Weather History for Whiteman AFB, MO

Change the Weather History Date:

Sunday, March 17, 2013

  Actual Average Record
Temperature  
Mean Temperature 34 °F -  
Max Temperature 36 °F 52 °F 79 °F (2009)
Min Temperature 32 °F 32 °F 16 °F (2014)
Degree Days  
Heating Degree Days 31    
Moisture  
Dew Point 33 °F    
Average Humidity 96    
Maximum Humidity 100    
Minimum Humidity 78    
Precipitation  
Precipitation 0.12 in - - ()
Sea Level Pressure  
Sea Level Pressure 29.89 in    
Wind  
Wind Speed 13 mph (ENE)    
Max Wind Speed 17 mph    
Max Gust Speed 23 mph    
Visibility 8 miles    
Events Rain    
Averages and records for this station are not official NWS values.
T = Trace of Precipitation, MM = Missing Value Source: NWS Daily Summary

Daily Weather History Graph

Daily Weather History Graph

Search for Another Location

Airport:

Trip Planner

Search our weather history database for the weather conditions in past years. The results will help you decide how hot, cold, wet, or windy it might be!

Date:

Astronomy

Mar. 17, 2013 Rise Set
Actual Time 7:21 AM CDT 7:23 PM CDT
Civil Twilight 6:55 AM CDT 7:50 PM CDT
Nautical Twilight 6:24 AM CDT 8:20 PM CDT
Astronomical Twilight 5:53 AM CDT 8:52 PM CDT
Moon 10:38 AM CDT (3/17) 12:28 AM CDT (3/17)
Length of Visible Light 12h 54m
Length of Day
12h 01m
Waxing Crescent, 31% of the Moon is Illuminated
Mar 17
Waxing Crescent
Mar 19
First Quarter
Mar 27
Full
Apr 2
Last Quarter
Apr 10
New

Hourly Weather History & Observations

Time (CDT) Temp. Windchill Dew Point Humidity Pressure Visibility Wind Dir Wind Speed Gust Speed Precip Events Conditions
12:58 AM 36.9 °F 28.7 °F 30.9 °F 79% 30.07 in 10.0 mi NNE 12.7 mph - N/A   Mostly Cloudy
1:58 AM 36.0 °F 26.0 °F 29.8 °F 78% 30.06 in 10.0 mi NE 17.3 mph - N/A   Overcast
2:58 AM 35.4 °F 26.0 °F 29.7 °F 80% 30.07 in 10.0 mi NE 15.0 mph - N/A   Overcast
3:24 AM 35.6 °F 27.1 °F 30.2 °F 81% 30.04 in 10.0 mi NE 12.7 mph - N/A Rain Light Rain
3:47 AM 33.8 °F 24.3 °F 30.2 °F 87% 30.03 in 10.0 mi NE 13.8 mph - N/A   Overcast
3:58 AM 34.5 °F 25.3 °F 29.7 °F 82% 30.06 in 10.0 mi NE 13.8 mph - 0.00 in   Overcast
4:43 AM 33.8 °F 23.9 °F 30.2 °F 87% 30.02 in 10.0 mi NE 15.0 mph 23.0 mph N/A   Overcast
4:58 AM 34.2 °F 23.6 °F 29.8 °F 84% 30.05 in 10.0 mi NE 17.3 mph - N/A   Overcast
5:14 AM 33.8 °F 23.2 °F 28.4 °F 81% 30.01 in 10.0 mi NE 17.3 mph 21.9 mph N/A   Light Drizzle
5:29 AM 32.0 °F 21.6 °F 30.2 °F 93% 30.01 in 10.0 mi NE 15.0 mph - N/A   Light Drizzle
5:38 AM 32.0 °F 22.1 °F 30.2 °F 93% 30.02 in 10.0 mi NE 13.8 mph - N/A   Overcast
5:58 AM 33.3 °F 23.7 °F 29.3 °F 85% 30.06 in 10.0 mi ENE 13.8 mph - 0.00 in   Overcast
6:15 AM 32.0 °F 23.0 °F 28.4 °F 87% 30.03 in 10.0 mi ENE 11.5 mph - N/A   Overcast
6:29 AM 32.0 °F 23.0 °F 30.2 °F 93% 30.02 in 10.0 mi ENE 11.5 mph - N/A   Overcast
6:58 AM 33.3 °F 24.6 °F 29.8 °F 87% 30.05 in 10.0 mi East 11.5 mph - 0.00 in   Overcast
7:48 AM 32.0 °F 23.6 °F 32.0 °F 100% 30.02 in 10.0 mi ENE 10.4 mph - N/A   Overcast
7:58 AM 33.4 °F 25.4 °F 30.6 °F 89% 30.05 in 10.0 mi ENE 10.4 mph - N/A   Overcast
8:58 AM 33.6 °F 24.6 °F 31.3 °F 91% 30.05 in 10.0 mi ENE 12.7 mph - N/A   Overcast
9:58 AM 34.0 °F 25.5 °F 32.4 °F 94% 30.03 in 10.0 mi ENE 11.5 mph - N/A   Overcast
10:58 AM 35.1 °F 26.4 °F 33.1 °F 92% 30.04 in 10.0 mi NE 12.7 mph - N/A   Overcast
11:58 AM 36.3 °F 28.4 °F 33.6 °F 90% 30.00 in 10.0 mi East 11.5 mph - N/A   Overcast
12:16 PM 35.6 °F 28.0 °F 32.0 °F 87% 29.97 in 10.0 mi ENE 10.4 mph - N/A   Overcast
12:36 PM 35.6 °F 28.6 °F 35.6 °F 100% 29.98 in 10.0 mi ENE 9.2 mph - N/A Rain Light Rain
12:58 PM 36.0 °F 29.0 °F 35.4 °F 98% 29.98 in 7.0 mi ENE 9.2 mph - 0.01 in Rain Light Rain
1:33 PM 35.6 °F 27.1 °F 35.6 °F 100% 29.94 in 10.0 mi ENE 12.7 mph - N/A Rain Light Rain
1:43 PM 35.6 °F 28.0 °F 35.6 °F 100% 29.94 in 7.0 mi ENE 10.4 mph - N/A Rain Light Rain
1:48 PM 35.6 °F 28.0 °F 35.6 °F 100% 29.93 in 6.0 mi ENE 10.4 mph - N/A Rain Light Rain
1:53 PM 35.6 °F 28.0 °F 35.6 °F 100% 29.92 in 5.0 mi ENE 10.4 mph - N/A Rain Light Rain
1:58 PM 35.1 °F 26.9 °F 34.7 °F 99% 29.95 in 4.0 mi East 11.5 mph - 0.03 in Rain Light Rain
2:08 PM 35.6 °F 27.5 °F 35.6 °F 100% 29.91 in 5.0 mi ENE 11.5 mph - N/A Rain Light Rain
2:23 PM 33.8 °F 23.9 °F 33.8 °F 100% 29.90 in 6.0 mi East 15.0 mph - N/A Rain Light Rain
2:28 PM 33.8 °F 25.3 °F 33.8 °F 100% 29.90 in 6.0 mi East 11.5 mph - N/A Rain Light Rain
2:43 PM 33.8 °F 25.8 °F 33.8 °F 100% 29.88 in 6.0 mi ENE 10.4 mph - N/A Rain Rain
2:48 PM 33.8 °F 24.8 °F 33.8 °F 100% 29.88 in 4.0 mi ENE 12.7 mph - N/A Rain Light Rain
2:58 PM 34.2 °F 26.2 °F 34.0 °F 99% 29.91 in 5.0 mi ENE 10.4 mph - 0.05 in Rain Light Rain
3:03 PM 33.8 °F 25.8 °F 33.8 °F 100% 29.88 in 7.0 mi ENE 10.4 mph - N/A Rain Light Rain
3:08 PM 33.8 °F 24.8 °F 33.8 °F 100% 29.88 in 9.0 mi ENE 12.7 mph - N/A Rain Light Rain
3:18 PM 33.8 °F 25.8 °F 33.8 °F 100% 29.87 in 10.0 mi ENE 10.4 mph - N/A   Light Drizzle
3:21 PM 33.8 °F 25.8 °F 33.8 °F 100% 29.86 in 10.0 mi ENE 10.4 mph - N/A   Overcast
3:29 PM 33.8 °F 25.8 °F 33.8 °F 100% 29.86 in 10.0 mi ENE 10.4 mph - N/A Rain Light Rain
3:58 PM 34.0 °F 24.6 °F 33.8 °F 99% 29.88 in 10.0 mi ENE 13.8 mph - 0.00 in Rain Light Rain
4:23 PM 33.8 °F 24.8 °F 33.8 °F 100% 29.83 in 10.0 mi ENE 12.7 mph - N/A Rain Light Rain
4:33 PM 33.8 °F 25.3 °F 33.8 °F 100% 29.83 in 10.0 mi ENE 11.5 mph - N/A   Light Drizzle
4:35 PM 33.8 °F 26.4 °F 33.8 °F 100% 29.83 in 10.0 mi ENE 9.2 mph - N/A   Overcast
4:41 PM 33.8 °F 26.4 °F 33.8 °F 100% 29.84 in 10.0 mi ENE 9.2 mph - N/A   Light Drizzle
4:55 PM 33.8 °F 24.8 °F 33.8 °F 100% 29.82 in 10.0 mi ENE 12.7 mph - N/A   Overcast
4:56 PM 33.8 °F 24.8 °F 33.8 °F 100% 29.82 in 10.0 mi ENE 12.7 mph - N/A   Overcast
5:07 PM 33.8 °F 23.9 °F 33.8 °F 100% 29.80 in 10.0 mi NE 15.0 mph 21.9 mph N/A   Light Drizzle
5:56 PM 33.8 °F 23.9 °F 33.8 °F 100% 29.78 in 10.0 mi ENE 15.0 mph - N/A   Overcast
5:58 PM 34.5 °F 24.8 °F 34.2 °F 99% 29.81 in 10.0 mi ENE 15.0 mph - 0.01 in   Overcast
6:58 PM 34.7 °F 26.9 °F 34.7 °F 100% 29.84 in 10.0 mi ENE 10.4 mph - N/A   Overcast
7:27 PM 33.8 °F 25.3 °F 33.8 °F 100% 29.80 in 10.0 mi ENE 11.5 mph - N/A   Light Drizzle
7:37 PM 33.8 °F 25.8 °F 33.8 °F 100% 29.80 in 10.0 mi ENE 10.4 mph - N/A Rain Light Rain
7:42 PM 33.8 °F 24.8 °F 33.8 °F 100% 29.80 in 8.0 mi ENE 12.7 mph 18.4 mph N/A Rain Light Rain
7:52 PM 33.8 °F 24.8 °F 33.8 °F 100% 29.80 in 5.0 mi ENE 12.7 mph - N/A Rain Light Rain
7:58 PM 34.3 °F 25.0 °F 34.3 °F 100% 29.82 in 5.0 mi ENE 13.8 mph - 0.01 in Rain Light Rain
8:08 PM 33.8 °F 27.7 °F 33.8 °F 100% 29.80 in 6.0 mi ENE 6.9 mph 19.6 mph N/A   Light Drizzle
8:28 PM 33.8 °F 25.3 °F 33.8 °F 100% 29.79 in 5.0 mi ENE 11.5 mph - N/A Rain Light Rain
8:33 PM 33.8 °F 24.8 °F 33.8 °F 100% 29.79 in 5.0 mi ENE 12.7 mph - N/A Rain Light Rain
8:43 PM 33.8 °F 23.9 °F 33.8 °F 100% 29.77 in 5.0 mi ENE 15.0 mph - N/A   Light Drizzle
8:58 PM 34.2 °F 26.2 °F 34.2 °F 100% 29.80 in 6.0 mi ENE 10.4 mph - 0.00 in   Light Drizzle
9:16 PM 33.8 °F 25.3 °F 33.8 °F 100% 29.77 in 7.0 mi East 11.5 mph - N/A   Overcast
9:19 PM 33.8 °F 25.8 °F 33.8 °F 100% 29.77 in 8.0 mi East 10.4 mph - N/A   Light Drizzle
9:20 PM 33.8 °F 25.8 °F 33.8 °F 100% 29.77 in 8.0 mi East 10.4 mph - N/A   Overcast
9:27 PM 33.8 °F 25.8 °F 33.8 °F 100% 29.77 in 8.0 mi East 10.4 mph - N/A   Light Drizzle
9:29 PM 33.8 °F 26.4 °F 33.8 °F 100% 29.77 in 7.0 mi East 9.2 mph - N/A   Overcast
9:38 PM 33.8 °F 25.8 °F 33.8 °F 100% 29.76 in 5.0 mi East 10.4 mph - N/A   Light Drizzle
9:56 PM 33.8 °F 26.4 °F 33.8 °F 100% 29.76 in 9.0 mi East 9.2 mph - N/A   Overcast
9:58 PM 34.0 °F 26.6 °F 34.0 °F 100% 29.80 in 10.0 mi East 9.2 mph - 0.01 in   Overcast
10:12 PM 33.8 °F 25.8 °F 33.8 °F 100% 29.77 in 10.0 mi East 10.4 mph - N/A   Light Drizzle
10:52 PM 33.8 °F 24.3 °F 33.8 °F 100% 29.75 in 8.0 mi East 13.8 mph - N/A   Light Drizzle
10:58 PM 34.2 °F 25.2 °F 34.2 °F 100% 29.79 in 7.0 mi ESE 12.7 mph - 0.00 in   Light Drizzle
11:20 PM 33.8 °F 27.0 °F 33.8 °F 100% 29.76 in 6.0 mi ESE 8.1 mph - N/A   Overcast
11:50 PM 33.8 °F 27.7 °F 33.8 °F 100% 29.76 in 10.0 mi East 6.9 mph - N/A   Overcast
11:58 PM 34.2 °F 27.5 °F 34.2 °F 100% 29.79 in 9.0 mi East 8.1 mph - 0.00 in   Overcast